Wind_Speed
27 26 25 25 24 24 24 25 24 24 26 26 26 24 23 21 22 23 22 22 22 22 21 21 19 19 19 19 19 19 19 19 19 20 20 20 20 19 19 19 19 19 19 20
27 26 25 26 26 26 26 25 25 26 28 28 29 26 24 23 24 24 24 23 23 24 23 22 22 21 21 21 21 21 21 21 21 21 22 22 21 22 21 21 21 21 22 22
26 25 25 27 26 26 27 25 27 29 30 29 28 27 26 26 26 25 24 24 24 24 24 24 23 23 24 24 23 23 23 23 23 23 23 23 23 23 24 24 25 24 24 24
26 26 27 26 26 27 28 28 29 30 30 31 31 29 27 28 27 26 25 26 26 25 25 24 25 25 25 24 24 24 23 23 23 23 24 24 25 25 26 26 26 25 25 25
27 26 27 27 27 26 27 30 30 31 31 31 32 31 29 28 28 28 27 27 27 26 25 24 25 25 24 25 25 25 25 24 24 25 25 25 25 26 26 27 27 27 27 27
27 26 26 28 28 27 28 30 30 31 32 32 32 32 30 29 28 29 29 29 29 27 26 25 25 25 26 27 27 28 27 27 27 27 27 27 27 27 28 29 28 28 28 29
28 26 26 26 27 27 30 31 30 31 31 31 32 33 31 31 30 30 30 30 29 29 28 27 27 28 28 28 28 29 29 30 29 28 29 29 29 30 30 30 30 30 30 30
26 27 27 27 27 28 29 28 28 30 31 31 32 33 33 31 30 30 31 31 31 31 30 29 30 30 30 29 29 30 30 30 30 30 31 31 31 30 30 30 30 31 32 32
27 28 28 28 28 29 29 29 29 30 31 32 33 32 32 31 30 30 31 32 32 32 31 30 30 30 30 30 31 31 31 31 32 32 33 32 31 31 31 31 32 32 33 33
26 26 27 26 27 29 30 29 28 30 30 31 32 32 32 32 31 31 32 32 32 32 32 31 31 31 31 31 31 31 32 32 32 33 33 32 32 32 33 32 32 33 33 33
26 25 27 26 26 28 28 27 29 30 31 32 32 32 33 32 32 32 32 32 31 31 31 31 30 30 30 31 31 31 32 32 32 32 32 33 34 33 33 33 32 33 33 33
26 26 27 26 25 27 26 27 28 28 29 30 29 30 30 29 30 31 31 29 29 30 30 30 30 29 30 30 31 30 31 32 32 33 33 33 34 34 34 34 34 33 33 33
24 26 26 26 26 26 26 26 26 27 27 28 28 28 28 28 30 31 30 29 28 28 28 28 29 29 30 29 29 30 31 31 33 33 34 34 34 34 34 35 34 32 32 33
23 23 23 24 24 25 25 25 25 25 25 26 26 26 26 27 28 28 28 27 26 26 26 26 27 28 29 30 30 31 31 32 32 33 33 34 34 34 33 34 34 34 33 33
22 21 21 22 23 24 24 24 24 24 24 24 25 24 25 26 26 26 26 25 24 24 25 26 27 28 29 30 30 31 32 32 31 32 33 34 33 34 34 34 34 33 33 34
22 22 21 22 22 23 22 22 23 23 23 24 24 24 23 23 23 24 25 24 24 24 25 26 27 28 29 30 31 31 31 31 32 33 34 34 33 32 32 32 33 34 34 33
21 21 21 21 22 22 21 21 22 21 21 23 23 22 22 21 21 22 22 23 23 24 25 27 28 28 29 29 30 29 30 30 31 31 31 32 32 32 31 31 31 32 32 33
20 21 21 21 20 20 21 20 20 20 21 22 21 21 21 20 20 21 22 23 24 24 24 25 26 26 27 28 29 29 29 29 29 28 28 28 28 29 29 30 31 32 33 32
19 20 21 20 19 19 20 19 19 19 18 18 19 20 20 20 20 21 22 23 23 24 24 25 26 26 26 27 28 28 28 29 29 28 28 28 28 28 29 30 31 32 32 33
18 18 19 18 18 18 19 18 18 17 18 18 18 19 19 20 21 21 22 22 22 22 23 25 25 25 25 26 26 27 27 27 28 28 28 28 28 29 30 31 32 32 32 33
17 17 17 17 17 16 17 17 16 16 17 18 18 18 18 19 19 19 20 21 22 23 23 23 24 24 25 25 25 25 26 26 27 27 27 28 28 29 30 31 32 32 33 34
17 17 16 16 16 16 16 16 16 16 16 17 18 18 18 18 18 19 20 20 21 22 22 22 22 22 23 23 23 24 25 25 26 27 27 28 29 29 30 31 32 33 34 35
16 15 15 16 16 16 17 17 17 17 17 17 17 17 17 17 18 19 19 19 19 20 20 20 20 21 22 22 23 23 24 24 25 26 27 28 29 29 30 31 32 33 33 34
15 14 14 15 16 16 16 16 16 16 16 16 17 17 17 17 18 18 19 19 19 19 19 20 20 21 21 22 23 23 24 25 26 27 27 28 29 29 30 31 32 33 33 35
13 13 13 14 14 15 15 15 14 14 14 15 16 16 16 16 17 17 18 18 18 18 19 20 20 21 22 22 23 23 24 25 26 27 27 28 29 30 30 31 31 32 33 33
11 11 12 12 12 13 14 14 14 14 13 13 14 14 14 15 16 17 17 18 18 18 19 20 21 21 22 22 23 23 24 24 25 26 27 28 29 29 30 30 31 32 32 33
11 11 11 11 11 11 12 12 13 13 13 14 13 13 14 15 15 16 17 17 18 19 19 20 21 21 22 22 23 24 24 25 26 27 27 28 30 30 30 31 32 33 34 35
Wind_Direction
232 231 231 235 240 242 241 240 246 251 256 258 260 259 259 260 262 266 269 268 268 270 271 274 275 275 277 280 281 282 282 284 285 285 284 283 284 286 288 288 287 286 288 289
234 232 234 234 234 237 243 244 245 249 253 254 258 261 260 263 265 267 268 270 271 271 272 273 274 274 274 275 278 280 281 281 282 282 281 280 282 283 284 285 285 285 286 288
238 235 236 239 236 239 244 242 242 246 251 254 256 259 264 265 265 265 266 270 270 269 269 270 271 272 273 274 276 277 280 282 281 279 280 280 282 282 281 282 284 284 284 285
238 238 239 237 236 239 243 243 244 248 253 255 259 264 267 265 266 264 264 267 269 269 269 270 271 271 272 272 273 275 278 280 279 279 279 279 280 282 282 281 282 284 285 286
239 242 245 241 241 239 241 243 244 248 251 254 258 261 261 263 266 266 265 266 269 271 271 271 271 272 272 272 272 274 276 277 277 277 278 280 281 281 281 280 280 282 284 286
239 241 244 245 246 246 243 244 245 250 253 254 255 260 260 260 263 266 266 266 267 269 270 271 271 271 271 272 273 273 276 276 276 276 278 279 280 280 280 280 280 280 282 284
241 243 248 247 247 248 247 248 249 252 255 255 256 259 261 261 261 263 264 264 266 268 270 273 272 271 270 271 272 274 275 275 275 275 276 277 279 279 279 280 279 280 281 283
240 241 244 246 247 247 251 254 255 255 257 259 260 260 260 260 263 265 265 265 266 267 270 273 274 273 273 272 274 274 274 274 274 275 275 276 277 278 279 278 278 280 281 282
239 241 246 249 251 251 253 254 255 258 259 262 261 263 262 262 265 267 266 267 268 268 270 272 273 274 273 273 274 274 274 274 274 274 274 275 276 277 277 278 279 281 281 281
242 245 250 253 252 253 256 257 260 263 262 262 265 264 263 263 264 265 267 269 268 269 270 271 272 272 273 273 273 274 274 274 273 272 272 274 277 277 277 277 279 281 282 283
246 247 249 252 254 255 258 260 263 265 264 263 263 266 266 262 262 264 266 268 266 267 270 271 273 272 272 274 276 277 277 276 274 273 274 277 278 277 276 277 279 279 280 281
246 251 253 255 259 260 262 263 263 264 263 263 263 264 264 262 262 264 265 267 265 266 268 270 271 273 274 274 276 277 277 278 277 276 276 278 279 279 278 279 281 281 279 281
249 251 255 256 258 261 263 265 265 265 266 266 264 264 264 264 264 264 265 266 266 266 268 269 270 272 274 275 276 277 278 279 280 280 279 280 280 279 279 279 278 278 279 281
248 253 257 257 257 261 264 265 266 266 267 267 266 265 264 263 264 264 264 265 266 266 267 269 271 273 275 277 278 279 279 280 280 280 281 281 280 282 282 280 278 279 279 280
248 254 258 260 261 264 265 265 266 267 266 266 267 266 264 263 262 262 263 266 266 267 268 270 272 275 277 279 280 280 280 279 280 282 283 282 280 280 281 281 280 280 281 282
249 254 257 261 264 266 263 263 266 266 265 265 265 265 263 263 262 263 263 266 268 270 271 272 273 275 277 280 281 282 281 281 281 283 284 284 282 281 283 283 282 283 283 284
250 254 257 261 263 262 263 264 264 266 268 267 266 264 263 263 263 265 267 268 271 274 275 276 277 277 279 281 282 283 283 284 285 286 286 286 286 285 284 284 284 285 285 286
250 254 259 261 260 262 264 266 266 266 266 264 263 263 264 265 267 269 270 271 273 276 278 280 281 282 282 282 282 282 283 286 287 288 289 288 288 288 285 284 286 287 288 290
253 256 257 258 258 259 262 263 263 263 264 263 260 259 261 265 267 270 273 276 277 279 280 281 283 286 286 285 286 286 285 285 285 287 287 287 287 287 286 287 288 290 291 292
256 258 257 258 260 262 262 263 265 265 265 264 263 261 264 266 269 273 275 277 278 280 282 282 284 286 288 288 286 287 288 288 288 288 288 287 288 289 289 290 290 291 292 294
256 256 258 259 260 262 263 264 266 267 267 267 267 268 270 272 274 277 278 278 279 280 281 283 284 287 289 290 288 288 288 289 290 291 290 290 291 291 292 292 292 293 294 295
255 255 254 255 257 259 261 263 265 267 269 272 271 270 272 275 277 278 280 282 284 285 285 286 288 289 290 291 291 291 291 291 291 292 292 292 292 292 293 293 293 293 294 295
250 250 251 253 254 257 261 263 265 267 269 271 273 274 274 276 278 279 281 283 286 287 288 288 289 290 290 292 294 295 295 296 296 296 296 296 297 297 296 296 296 297 297 297
248 249 251 254 257 259 264 266 265 264 267 271 274 275 276 278 280 281 283 284 286 287 288 290 290 292 293 293 294 295 296 297 297 299 299 299 299 299 298 298 299 299 300 300
248 254 255 258 259 259 262 266 267 267 270 273 276 278 279 281 284 287 287 288 288 289 292 293 294 294 295 295 296 297 298 299 300 300 301 300 301 302 303 304 304 304 304 304
247 256 262 264 263 260 260 264 266 268 272 275 279 282 285 287 290 291 292 292 292 292 293 294 295 296 297 298 299 299 301 302 302 303 302 303 304 306 306 307 306 307 307 307
248 253 257 262 266 266 265 266 269 271 274 277 280 285 289 291 293 294 294 294 295 295 295 297 298 299 300 301 300 301 301 302 303 304 303 304 305 307 307 307 308 308 308 307
Height
5849 5853 5855 5859 5861 5863 5865 5868 5871 5872 5871 5872 5871 5870 5871 5872 5873 5873 5873 5873 5874 5875 5875 5875 5876 5876 5875 5875 5875 5875 5875 5875 5874 5874 5873 5873 5872 5872 5871 5870 5869 5869 5868 5867
5842 5845 5848 5851 5854 5857 5859 5861 5863 5864 5864 5863 5864 5864 5865 5866 5868 5868 5868 5868 5869 5870 5870 5870 5871 5871 5871 5871 5871 5870 5870 5870 5869 5868 5868 5868 5867 5867 5866 5865 5864 5864 5863 5862
5836 5839 5841 5844 5847 5850 5853 5854 5856 5856 5856 5856 5857 5859 5859 5861 5861 5862 5862 5863 5863 5864 5864 5865 5865 5865 5866 5865 5865 5864 5864 5864 5863 5863 5862 5861 5861 5861 5860 5860 5859 5858 5858 5857
5829 5832 5834 5839 5840 5842 5845 5847 5848 5849 5849 5850 5851 5852 5853 5854 5855 5855 5856 5857 5857 5857 5858 5858 5858 5859 5859 5859 5859 5859 5858 5858 5857 5857 5856 5856 5855 5854 5854 5853 5853 5852 5851 5851
5822 5824 5827 5831 5832 5834 5837 5838 5840 5841 5842 5843 5843 5845 5847 5847 5848 5848 5849 5849 5850 5850 5851 5851 5852 5852 5852 5852 5852 5852 5852 5852 5851 5850 5850 5849 5849 5848 5847 5847 5846 5845 5844 5843
5816 5818 5820 5824 5825 5827 5829 5830 5831 5832 5833 5834 5835 5836 5839 5840 5841 5841 5841 5842 5843 5843 5844 5844 5844 5844 5844 5845 5845 5845 5845 5844 5844 5843 5843 5842 5842 5841 5840 5839 5838 5837 5836 5835
5809 5811 5813 5815 5817 5819 5822 5823 5824 5825 5825 5825 5827 5829 5830 5832 5833 5833 5833 5834 5834 5835 5836 5836 5837 5837 5837 5837 5837 5837 5837 5836 5836 5836 5835 5835 5834 5833 5832 5830 5829 5829 5828 5827
5803 5805 5808 5808 5809 5811 5813 5814 5815 5817 5818 5818 5820 5821 5822 5822 5824 5825 5825 5825 5826 5827 5827 5828 5828 5828 5828 5829 5828 5828 5828 5828 5827 5827 5826 5826 5825 5824 5823 5822 5821 5819 5818 5817
5797 5799 5799 5800 5802 5803 5805 5807 5807 5808 5810 5811 5811 5812 5813 5814 5815 5816 5816 5817 5818 5818 5819 5819 5819 5819 5820 5820 5820 5819 5819 5818 5818 5817 5817 5817 5816 5814 5813 5812 5811 5810 5809 5808
5790 5792 5793 5793 5795 5796 5797 5798 5800 5801 5802 5803 5803 5804 5805 5806 5807 5807 5808 5808 5809 5809 5810 5811 5811 5811 5811 5811 5810 5810 5810 5809 5808 5808 5807 5807 5805 5804 5803 5802 5801 5800 5799 5798
5783 5785 5786 5786 5787 5788 5789 5791 5792 5793 5794 5794 5795 5796 5797 5798 5799 5799 5799 5800 5800 5801 5801 5802 5802 5802 5802 5802 5801 5801 5800 5799 5799 5798 5798 5797 5796 5794 5793 5792 5790 5789 5789 5788
5777 5779 5779 5780 5781 5781 5782 5784 5785 5785 5785 5786 5787 5788 5788 5789 5790 5790 5791 5791 5791 5793 5793 5794 5794 5794 5794 5793 5793 5792 5792 5791 5790 5789 5788 5788 5787 5785 5783 5783 5781 5780 5778 5778
5770 5771 5772 5773 5775 5774 5775 5776 5777 5777 5778 5778 5779 5779 5780 5781 5782 5783 5784 5784 5784 5785 5785 5785 5786 5786 5785 5785 5785 5784 5783 5782 5781 5779 5779 5777 5776 5774 5773 5772 5771 5770 5768 5768
5764 5766 5767 5768 5768 5768 5769 5770 5770 5770 5770 5771 5772 5772 5773 5774 5775 5775 5776 5777 5777 5777 5778 5778 5778 5778 5777 5777 5777 5776 5774 5773 5772 5770 5769 5768 5766 5764 5763 5762 5761 5760 5759 5758
5759 5760 5761 5762 5762 5762 5763 5764 5764 5764 5764 5765 5765 5766 5766 5767 5768 5768 5769 5770 5770 5770 5771 5771 5771 5770 5769 5769 5768 5767 5766 5764 5763 5762 5760 5758 5757 5756 5754 5752 5751 5750 5749 5748
5754 5755 5756 5756 5757 5757 5757 5757 5758 5758 5758 5758 5759 5760 5760 5761 5761 5762 5762 5763 5763 5763 5763 5763 5763 5762 5762 5761 5760 5758 5757 5756 5754 5753 5751 5749 5747 5746 5745 5743 5741 5740 5739 5738
5749 5750 5751 5751 5751 5751 5751 5751 5751 5751 5752 5752 5753 5754 5754 5755 5755 5756 5756 5756 5756 5756 5756 5756 5755 5755 5754 5753 5751 5750 5749 5747 5746 5744 5742 5740 5739 5737 5736 5734 5733 5732 5730 5729
5744 5745 5745 5745 5746 5746 5746 5746 5746 5747 5747 5747 5748 5748 5749 5749 5750 5750 5750 5750 5750 5750 5749 5748 5748 5747 5746 5745 5744 5742 5741 5739 5738 5736 5734 5732 5731 5729 5728 5727 5725 5723 5722 5719
5738 5739 5739 5740 5740 5740 5740 5741 5740 5741 5741 5741 5742 5743 5743 5743 5744 5744 5744 5744 5744 5743 5743 5742 5741 5740 5739 5737 5736 5734 5733 5731 5730 5728 5727 5725 5724 5722 5720 5719 5717 5715 5713 5711
5733 5734 5734 5735 5735 5736 5736 5736 5735 5735 5736 5737 5737 5737 5737 5738 5738 5738 5738 5738 5737 5737 5736 5735 5734 5733 5731 5730 5729 5727 5725 5724 5722 5720 5719 5717 5716 5714 5712 5711 5708 5706 5704 5701
5729 5729 5730 5730 5731 5731 5731 5731 5731 5731 5731 5732 5732 5732 5732 5732 5732 5732 5732 5731 5731 5730 5729 5728 5727 5726 5725 5723 5721 5720 5718 5717 5715 5713 5712 5710 5708 5706 5705 5702 5700 5698 5695 5692
5724 5725 5725 5726 5726 5726 5727 5727 5727 5727 5727 5727 5727 5727 5727 5727 5727 5726 5726 5726 5725 5724 5723 5722 5721 5719 5718 5716 5715 5713 5712 5710 5708 5706 5704 5702 5700 5698 5696 5694 5691 5689 5686 5683
5719 5720 5721 5722 5722 5722 5722 5722 5723 5723 5723 5723 5723 5722 5722 5722 5722 5721 5721 5720 5719 5718 5717 5715 5714 5713 5712 5710 5709 5707 5705 5703 5702 5699 5697 5695 5693 5690 5688 5685 5682 5679 5676 5673
5715 5716 5717 5717 5717 5718 5718 5718 5718 5718 5718 5718 5718 5718 5717 5717 5717 5716 5715 5714 5713 5712 5711 5710 5708 5707 5706 5704 5702 5701 5699 5697 5695 5693 5690 5688 5685 5682 5680 5676 5673 5670 5666 5663
5711 5712 5713 5713 5713 5713 5713 5714 5714 5714 5714 5714 5714 5713 5713 5712 5711 5710 5709 5708 5707 5706 5705 5704 5702 5701 5699 5698 5696 5694 5692 5690 5688 5685 5682 5680 5677 5674 5671 5668 5664 5661 5657 5654
5707 5708 5709 5709 5709 5709 5709 5710 5710 5710 5710 5710 5710 5709 5709 5708 5707 5706 5705 5703 5702 5701 5700 5698 5697 5695 5693 5691 5690 5688 5685 5683 5681 5678 5675 5672 5669 5666 5663 5659 5656 5652 5648 5645
5704 5704 5705 5705 5705 5706 5706 5706 5706 5707 5706 5706 5706 5706 5705 5704 5703 5702 5701 5699 5698 5696 5695 5693 5691 5689 5687 5685 5683 5681 5679 5676 5674 5671 5669 5665 5662 5659 5655 5651 5647 5644 5640 5635